Year,Month,Day,Hour,Minute,Value (Times are PST for temperature in C)
2010,08,15,00,00,19.50
2010,08,15,00,01,19.50
2010,08,15,00,02,19.50
2010,08,15,00,03,19.50
2010,08,15,00,04,19.40
2010,08,15,00,05,19.40
2010,08,15,00,06,19.40
2010,08,15,00,07,19.40
2010,08,15,00,08,19.30
2010,08,15,00,09,19.30
2010,08,15,00,10,19.30
2010,08,15,00,11,19.20
2010,08,15,00,12,19.20
2010,08,15,00,13,19.20
2010,08,15,00,14,19.10
2010,08,15,00,15,19.10
2010,08,15,00,16,19.10
2010,08,15,00,17,19.10
2010,08,15,00,18,19.10
2010,08,15,00,19,19.10
2010,08,15,00,20,19.10
2010,08,15,00,21,19.00
2010,08,15,00,22,18.90
2010,08,15,00,23,18.90
2010,08,15,00,24,18.90
2010,08,15,00,25,18.90
2010,08,15,00,26,18.90
2010,08,15,00,27,18.80
2010,08,15,00,28,18.80
2010,08,15,00,29,18.70
2010,08,15,00,30,18.70
2010,08,15,00,31,18.70
2010,08,15,00,32,18.70
2010,08,15,00,33,18.60
2010,08,15,00,34,18.60
2010,08,15,00,35,18.60
2010,08,15,00,36,18.60
2010,08,15,00,37,18.50
2010,08,15,00,38,18.50
2010,08,15,00,39,18.50
2010,08,15,00,40,18.50
2010,08,15,00,41,18.50
2010,08,15,00,42,18.40
2010,08,15,00,43,18.40
2010,08,15,00,44,18.40
2010,08,15,00,45,18.40
2010,08,15,00,46,18.30
2010,08,15,00,47,18.30
2010,08,15,00,48,18.30
2010,08,15,00,49,18.30
2010,08,15,00,50,18.30
2010,08,15,00,51,18.30
2010,08,15,00,52,18.30
2010,08,15,00,53,18.20
2010,08,15,00,54,18.20
2010,08,15,00,55,18.20
2010,08,15,00,56,18.20
2010,08,15,00,57,18.20
2010,08,15,00,58,18.20
2010,08,15,00,59,18.20
2010,08,15,01,00,18.20
2010,08,15,01,01,18.20
2010,08,15,01,02,18.20
2010,08,15,01,03,18.20
2010,08,15,01,04,18.20
2010,08,15,01,05,18.20
2010,08,15,01,06,18.20
2010,08,15,01,07,18.20
2010,08,15,01,08,18.20
2010,08,15,01,09,18.20
2010,08,15,01,10,18.20
2010,08,15,01,11,18.20
2010,08,15,01,12,18.20
2010,08,15,01,13,18.10
2010,08,15,01,14,18.10
2010,08,15,01,15,18.10
2010,08,15,01,16,18.10
2010,08,15,01,17,18.10
2010,08,15,01,18,18.10
2010,08,15,01,19,18.10
2010,08,15,01,20,18.00
2010,08,15,01,21,17.90
2010,08,15,01,22,17.90
2010,08,15,01,23,17.90
2010,08,15,01,24,17.90
2010,08,15,01,25,17.90
2010,08,15,01,26,17.90
2010,08,15,01,27,17.90
2010,08,15,01,28,17.80
2010,08,15,01,29,17.80
2010,08,15,01,30,17.80
2010,08,15,01,31,17.80
2010,08,15,01,32,17.80
2010,08,15,01,33,17.70
2010,08,15,01,34,17.70
2010,08,15,01,35,17.70
2010,08,15,01,36,17.70
2010,08,15,01,37,17.70
2010,08,15,01,38,17.70
2010,08,15,01,39,17.60
2010,08,15,01,40,17.60
2010,08,15,01,41,17.60
2010,08,15,01,42,17.60
2010,08,15,01,43,17.60
2010,08,15,01,44,17.60
2010,08,15,01,45,17.50
2010,08,15,01,46,17.50
2010,08,15,01,47,17.50
2010,08,15,01,48,17.50
2010,08,15,01,49,17.50
2010,08,15,01,50,17.50
2010,08,15,01,51,17.50
2010,08,15,01,52,17.50
2010,08,15,01,53,17.40
2010,08,15,01,54,17.40
2010,08,15,01,55,17.40
2010,08,15,01,56,17.40
2010,08,15,01,57,17.40
2010,08,15,01,58,17.40
2010,08,15,01,59,17.40
2010,08,15,02,00,17.40
2010,08,15,02,01,17.40
2010,08,15,02,02,17.40
2010,08,15,02,03,17.40
2010,08,15,02,04,17.40
2010,08,15,02,05,17.40
2010,08,15,02,06,17.40
2010,08,15,02,07,17.40
2010,08,15,02,08,17.40
2010,08,15,02,09,17.30
2010,08,15,02,10,17.30
2010,08,15,02,11,17.30
2010,08,15,02,12,17.30
2010,08,15,02,13,17.30
2010,08,15,02,14,17.30
2010,08,15,02,15,17.30
2010,08,15,02,16,17.30
2010,08,15,02,17,17.30
2010,08,15,02,18,17.30
2010,08,15,02,19,17.30
2010,08,15,02,20,17.30
2010,08,15,02,21,17.30
2010,08,15,02,22,17.30
2010,08,15,02,23,17.30
2010,08,15,02,24,17.30
2010,08,15,02,25,17.30
2010,08,15,02,26,17.30
2010,08,15,02,27,17.30
2010,08,15,02,28,17.30
2010,08,15,02,29,17.30
2010,08,15,02,30,17.30
2010,08,15,02,31,17.30
2010,08,15,02,32,17.30
2010,08,15,02,33,17.30
2010,08,15,02,34,17.30
2010,08,15,02,35,17.30
2010,08,15,02,36,17.30
2010,08,15,02,37,17.30
2010,08,15,02,38,17.30
2010,08,15,02,39,17.30
2010,08,15,02,40,17.30
2010,08,15,02,41,17.30
2010,08,15,02,42,17.30
2010,08,15,02,43,17.30
2010,08,15,02,44,17.30
2010,08,15,02,45,17.20
2010,08,15,02,46,17.20
2010,08,15,02,47,17.20
2010,08,15,02,48,17.20
2010,08,15,02,49,17.20
2010,08,15,02,50,17.10
2010,08,15,02,51,17.10
2010,08,15,02,52,17.10
2010,08,15,02,53,17.10
2010,08,15,02,54,17.10
2010,08,15,02,55,17.10
2010,08,15,02,56,17.10
2010,08,15,02,57,17.10
2010,08,15,02,58,17.10
2010,08,15,02,59,17.10
2010,08,15,03,00,17.10
2010,08,15,03,01,17.10
2010,08,15,03,02,17.10
2010,08,15,03,03,17.10
2010,08,15,03,04,17.00
2010,08,15,03,05,17.00
2010,08,15,03,06,17.00
2010,08,15,03,07,17.00
2010,08,15,03,08,17.00
2010,08,15,03,09,17.00
2010,08,15,03,10,17.00
2010,08,15,03,11,17.00
2010,08,15,03,12,17.00
2010,08,15,03,13,17.00
2010,08,15,03,14,17.00
2010,08,15,03,15,17.00
2010,08,15,03,16,17.00
2010,08,15,03,17,17.00
2010,08,15,03,18,17.00
2010,08,15,03,19,17.00
2010,08,15,03,20,17.00
2010,08,15,03,21,16.90
2010,08,15,03,22,16.90
2010,08,15,03,23,16.90
2010,08,15,03,24,16.90
2010,08,15,03,25,16.90
2010,08,15,03,26,16.90
2010,08,15,03,27,16.80
2010,08,15,03,28,16.80
2010,08,15,03,29,16.80
2010,08,15,03,30,16.80
2010,08,15,03,31,16.80
2010,08,15,03,32,16.80
2010,08,15,03,33,16.70
2010,08,15,03,34,16.70
2010,08,15,03,35,16.70
2010,08,15,03,36,16.70
2010,08,15,03,37,16.70
2010,08,15,03,38,16.70
2010,08,15,03,39,16.70
2010,08,15,03,40,16.70
2010,08,15,03,41,16.70
2010,08,15,03,42,16.70
2010,08,15,03,43,16.70
2010,08,15,03,44,16.70
2010,08,15,03,45,16.70
2010,08,15,03,46,16.70
2010,08,15,03,47,16.60
2010,08,15,03,48,16.60
2010,08,15,03,49,16.60
2010,08,15,03,50,16.60
2010,08,15,03,51,16.60
2010,08,15,03,52,16.50
2010,08,15,03,53,16.40
2010,08,15,03,54,16.40
2010,08,15,03,55,16.40
2010,08,15,03,56,16.40
2010,08,15,03,57,16.40
2010,08,15,03,58,16.40
2010,08,15,03,59,16.40
2010,08,15,04,00,16.40
2010,08,15,04,01,16.40
2010,08,15,04,02,16.40
2010,08,15,04,03,16.40
2010,08,15,04,04,16.40
2010,08,15,04,05,16.40
2010,08,15,04,06,16.40
2010,08,15,04,07,16.40
2010,08,15,04,08,16.40
2010,08,15,04,09,16.40
2010,08,15,04,10,16.40
2010,08,15,04,11,16.40
2010,08,15,04,12,16.40
2010,08,15,04,13,16.40
2010,08,15,04,14,16.40
2010,08,15,04,15,16.40
2010,08,15,04,16,16.40
2010,08,15,04,17,16.40
2010,08,15,04,18,16.40
2010,08,15,04,19,16.40
2010,08,15,04,20,16.40
2010,08,15,04,21,16.30
2010,08,15,04,22,16.30
2010,08,15,04,23,16.30
2010,08,15,04,24,16.30
2010,08,15,04,25,16.30
2010,08,15,04,26,16.30
2010,08,15,04,27,16.40
2010,08,15,04,28,16.40
2010,08,15,04,29,16.40
2010,08,15,04,30,16.40
2010,08,15,04,31,16.40
2010,08,15,04,32,16.40
2010,08,15,04,33,16.40
2010,08,15,04,34,16.40
2010,08,15,04,35,16.40
2010,08,15,04,36,16.40
2010,08,15,04,37,16.40
2010,08,15,04,38,16.40
2010,08,15,04,39,16.40
2010,08,15,04,40,16.30
2010,08,15,04,41,16.30
2010,08,15,04,42,16.30
2010,08,15,04,43,16.30
2010,08,15,04,44,16.30
2010,08,15,04,45,16.30
2010,08,15,04,46,16.30
2010,08,15,04,47,16.30
2010,08,15,04,48,16.30
2010,08,15,04,49,16.30
2010,08,15,04,50,16.30
2010,08,15,04,51,16.30
2010,08,15,04,52,16.30
2010,08,15,04,53,16.30
2010,08,15,04,54,16.40
2010,08,15,04,55,16.40
2010,08,15,04,56,16.40
2010,08,15,04,57,16.40
2010,08,15,04,58,16.40
2010,08,15,04,59,16.40
2010,08,15,05,00,16.40
2010,08,15,05,01,16.40
2010,08,15,05,02,16.40
2010,08,15,05,03,16.40
2010,08,15,05,04,16.40
2010,08,15,05,05,16.40
2010,08,15,05,06,16.40
2010,08,15,05,07,16.40
2010,08,15,05,08,16.40
2010,08,15,05,09,16.40
2010,08,15,05,10,16.40
2010,08,15,05,11,16.50
2010,08,15,05,12,16.60
2010,08,15,05,13,16.60
2010,08,15,05,14,16.60
2010,08,15,05,15,16.60
2010,08,15,05,16,16.60
2010,08,15,05,17,16.60
2010,08,15,05,18,16.60
2010,08,15,05,19,16.60
2010,08,15,05,20,16.60
2010,08,15,05,21,16.60
2010,08,15,05,22,16.60
2010,08,15,05,23,16.60
2010,08,15,05,24,16.50
2010,08,15,05,25,16.40
2010,08,15,05,26,16.40
2010,08,15,05,27,16.40
2010,08,15,05,28,16.40
2010,08,15,05,29,16.40
2010,08,15,05,30,16.40
2010,08,15,05,31,16.40
2010,08,15,05,32,16.40
2010,08,15,05,33,16.40
2010,08,15,05,34,16.40
2010,08,15,05,35,16.40
2010,08,15,05,36,16.40
2010,08,15,05,37,16.40
2010,08,15,05,38,16.40
2010,08,15,05,39,16.40
2010,08,15,05,40,16.40
2010,08,15,05,41,16.40
2010,08,15,05,42,16.30
2010,08,15,05,43,16.30
2010,08,15,05,44,16.30
2010,08,15,05,45,16.30
2010,08,15,05,46,16.30
2010,08,15,05,47,16.30
2010,08,15,05,48,16.30
2010,08,15,05,49,16.30
2010,08,15,05,50,16.30
2010,08,15,05,51,16.30
2010,08,15,05,52,16.30
2010,08,15,05,53,16.30
2010,08,15,05,54,16.30
2010,08,15,05,55,16.30
2010,08,15,05,56,16.30
2010,08,15,05,57,16.30
2010,08,15,05,58,16.30
2010,08,15,05,59,16.30
2010,08,15,06,00,16.30
2010,08,15,06,01,16.20
2010,08,15,06,02,16.20
2010,08,15,06,03,16.20
2010,08,15,06,04,16.20
2010,08,15,06,05,16.20
2010,08,15,06,06,16.20
2010,08,15,06,07,16.20
2010,08,15,06,08,16.20
2010,08,15,06,09,16.20
2010,08,15,06,10,16.20
2010,08,15,06,11,16.20
2010,08,15,06,12,16.20
2010,08,15,06,13,16.20
2010,08,15,06,14,16.20
2010,08,15,06,15,16.20
2010,08,15,06,16,16.20
2010,08,15,06,17,16.20
2010,08,15,06,18,16.20
2010,08,15,06,19,16.20
2010,08,15,06,20,16.20
2010,08,15,06,21,16.20
2010,08,15,06,22,16.20
2010,08,15,06,23,16.20
2010,08,15,06,24,16.20
2010,08,15,06,25,16.20
2010,08,15,06,26,16.20
2010,08,15,06,27,16.20
2010,08,15,06,28,16.20
2010,08,15,06,29,16.20
2010,08,15,06,30,16.20
2010,08,15,06,31,16.20
2010,08,15,06,32,16.30
2010,08,15,06,33,16.30
2010,08,15,06,34,16.30
2010,08,15,06,35,16.30
2010,08,15,06,36,16.30
2010,08,15,06,37,16.30
2010,08,15,06,38,16.30
2010,08,15,06,39,16.40
2010,08,15,06,40,16.40
2010,08,15,06,41,16.40
2010,08,15,06,42,16.40
2010,08,15,06,43,16.40
2010,08,15,06,44,16.40
2010,08,15,06,45,16.40
2010,08,15,06,46,16.50
2010,08,15,06,47,16.60
2010,08,15,06,48,16.60
2010,08,15,06,49,16.60
2010,08,15,06,50,16.70
2010,08,15,06,51,16.70
2010,08,15,06,52,16.70
2010,08,15,06,53,16.70
2010,08,15,06,54,16.80
2010,08,15,06,55,16.90
2010,08,15,06,56,16.90
2010,08,15,06,57,17.00
2010,08,15,06,58,17.00
2010,08,15,06,59,17.10
2010,08,15,07,00,17.20
2010,08,15,07,01,17.30
2010,08,15,07,02,17.30
2010,08,15,07,03,17.40
2010,08,15,07,04,17.40
2010,08,15,07,05,17.50
2010,08,15,07,06,17.50
2010,08,15,07,07,17.60
2010,08,15,07,08,17.70
2010,08,15,07,09,17.70
2010,08,15,07,10,17.80
2010,08,15,07,11,17.90
2010,08,15,07,12,17.90
2010,08,15,07,13,17.90
2010,08,15,07,14,18.00
2010,08,15,07,15,18.10
2010,08,15,07,16,18.20
2010,08,15,07,17,18.20
2010,08,15,07,18,18.30
2010,08,15,07,19,18.40
2010,08,15,07,20,18.40
2010,08,15,07,21,18.50
2010,08,15,07,22,18.60
2010,08,15,07,23,18.60
2010,08,15,07,24,18.70
2010,08,15,07,25,18.80
2010,08,15,07,26,18.90
2010,08,15,07,27,19.00
2010,08,15,07,28,19.10
2010,08,15,07,29,19.20
2010,08,15,07,30,19.30
2010,08,15,07,31,19.30
2010,08,15,07,32,19.40
2010,08,15,07,33,19.50
2010,08,15,07,34,19.60
2010,08,15,07,35,19.60
2010,08,15,07,36,19.70
2010,08,15,07,37,19.80
2010,08,15,07,38,19.90
2010,08,15,07,39,19.90
2010,08,15,07,40,20.00
2010,08,15,07,41,20.10
2010,08,15,07,42,20.20
2010,08,15,07,43,20.20
2010,08,15,07,44,20.30
2010,08,15,07,45,20.30
2010,08,15,07,46,20.40
2010,08,15,07,47,20.50
2010,08,15,07,48,20.50
2010,08,15,07,49,20.60
2010,08,15,07,50,20.70
2010,08,15,07,51,20.70
2010,08,15,07,52,20.80
2010,08,15,07,53,20.90
2010,08,15,07,54,21.00
2010,08,15,07,55,21.10
2010,08,15,07,56,21.20
2010,08,15,07,57,21.30
2010,08,15,07,58,21.30
2010,08,15,07,59,21.40
2010,08,15,08,00,21.40
2010,08,15,08,01,21.40
2010,08,15,08,02,21.40
2010,08,15,08,03,21.40
2010,08,15,08,04,21.40
2010,08,15,08,05,21.40
2010,08,15,08,06,21.40
2010,08,15,08,07,21.40
2010,08,15,08,08,21.40
2010,08,15,08,09,21.50
2010,08,15,08,10,21.60
2010,08,15,08,11,21.60
2010,08,15,08,12,21.60
2010,08,15,08,13,21.60
2010,08,15,08,14,21.60
2010,08,15,08,15,21.60
2010,08,15,08,16,21.70
2010,08,15,08,17,21.70
2010,08,15,08,18,21.70
2010,08,15,08,19,21.80
2010,08,15,08,20,21.90
2010,08,15,08,21,21.90
2010,08,15,08,22,22.00
2010,08,15,08,23,22.00
2010,08,15,08,24,22.00
2010,08,15,08,25,22.10
2010,08,15,08,26,22.10
2010,08,15,08,27,22.20
2010,08,15,08,28,22.20
2010,08,15,08,29,22.20
2010,08,15,08,30,22.30
2010,08,15,08,31,22.30
2010,08,15,08,32,22.40
2010,08,15,08,33,22.40
2010,08,15,08,34,22.50
2010,08,15,08,35,22.50
2010,08,15,08,36,22.60
2010,08,15,08,37,22.60
2010,08,15,08,38,22.70
2010,08,15,08,39,22.80
2010,08,15,08,40,22.90
2010,08,15,08,41,23.00
2010,08,15,08,42,23.10
2010,08,15,08,43,23.20
2010,08,15,08,44,23.30
2010,08,15,08,45,23.40
2010,08,15,08,46,23.50
2010,08,15,08,47,23.60
2010,08,15,08,48,23.70
2010,08,15,08,49,23.70
2010,08,15,08,50,23.80
2010,08,15,08,51,23.90
2010,08,15,08,52,24.00
2010,08,15,08,53,24.10
2010,08,15,08,54,24.10
2010,08,15,08,55,24.20
2010,08,15,08,56,24.30
2010,08,15,08,57,24.40
2010,08,15,08,58,24.40
2010,08,15,08,59,24.50
2010,08,15,09,00,24.60
2010,08,15,09,01,24.70
2010,08,15,09,02,24.80
2010,08,15,09,03,24.90
2010,08,15,09,04,25.00
2010,08,15,09,05,25.20
2010,08,15,09,06,25.30
2010,08,15,09,07,25.40
2010,08,15,09,08,25.50
2010,08,15,09,09,25.60
2010,08,15,09,10,25.70
2010,08,15,09,11,25.90
2010,08,15,09,12,26.00
2010,08,15,09,13,26.10
2010,08,15,09,14,26.20
2010,08,15,09,15,26.30
2010,08,15,09,16,26.30
2010,08,15,09,17,26.30
2010,08,15,09,18,26.40
2010,08,15,09,19,26.40
2010,08,15,09,20,26.40
2010,08,15,09,21,26.50
2010,08,15,09,22,26.60
2010,08,15,09,23,26.60
2010,08,15,09,24,26.70
2010,08,15,09,25,26.80
2010,08,15,09,26,26.80
2010,08,15,09,27,26.80
2010,08,15,09,28,26.90
2010,08,15,09,29,27.00
2010,08,15,09,30,27.10
2010,08,15,09,31,27.10
2010,08,15,09,32,27.20
2010,08,15,09,33,27.30
2010,08,15,09,34,27.30
2010,08,15,09,35,27.40
2010,08,15,09,36,27.30
2010,08,15,09,37,27.30
2010,08,15,09,38,27.30
2010,08,15,09,39,27.30
2010,08,15,09,40,27.30
2010,08,15,09,41,27.30
2010,08,15,09,42,27.40
2010,08,15,09,43,27.40
2010,08,15,09,44,27.50
2010,08,15,09,45,27.60
2010,08,15,09,46,27.40
2010,08,15,09,47,27.50
2010,08,15,09,48,27.40
2010,08,15,09,49,27.40
2010,08,15,09,50,27.40
2010,08,15,09,51,27.50
2010,08,15,09,52,27.60
2010,08,15,09,53,27.70
2010,08,15,09,54,27.70
2010,08,15,09,55,27.80
2010,08,15,09,56,27.80
2010,08,15,09,57,27.70
2010,08,15,09,58,27.70
2010,08,15,09,59,27.70
2010,08,15,10,00,27.70
2010,08,15,10,01,27.70
2010,08,15,10,02,27.80
2010,08,15,10,03,27.80
2010,08,15,10,04,27.90
2010,08,15,10,05,27.90
2010,08,15,10,06,28.00
2010,08,15,10,07,28.10
2010,08,15,10,08,28.20
2010,08,15,10,09,28.30
2010,08,15,10,10,28.40
2010,08,15,10,11,28.50
2010,08,15,10,12,28.60
2010,08,15,10,13,28.60
2010,08,15,10,14,28.70
2010,08,15,10,15,28.70
2010,08,15,10,16,28.70
2010,08,15,10,17,28.60
2010,08,15,10,18,28.50
2010,08,15,10,19,28.40
2010,08,15,10,20,28.40
2010,08,15,10,21,28.30
2010,08,15,10,22,28.20
2010,08,15,10,23,28.20
2010,08,15,10,24,28.10
2010,08,15,10,25,28.00
2010,08,15,10,26,28.00
2010,08,15,10,27,28.00
2010,08,15,10,28,28.00
2010,08,15,10,29,28.00
2010,08,15,10,30,28.00
2010,08,15,10,31,28.00
2010,08,15,10,32,28.10
2010,08,15,10,33,28.10
2010,08,15,10,34,28.20
2010,08,15,10,35,28.20
2010,08,15,10,36,28.20
2010,08,15,10,37,28.20
2010,08,15,10,38,28.30
2010,08,15,10,39,28.30
2010,08,15,10,40,28.40
2010,08,15,10,41,28.40
2010,08,15,10,42,28.40
2010,08,15,10,43,28.40
2010,08,15,10,44,28.30
2010,08,15,10,45,28.40
2010,08,15,10,46,28.40
2010,08,15,10,47,28.40
2010,08,15,10,48,28.40
2010,08,15,10,49,28.50
2010,08,15,10,50,28.60
2010,08,15,10,51,28.70
2010,08,15,10,52,28.90
2010,08,15,10,53,29.00
2010,08,15,10,54,29.10
2010,08,15,10,55,29.20
2010,08,15,10,56,29.30
2010,08,15,10,57,29.30
2010,08,15,10,58,29.30
2010,08,15,10,59,29.30
2010,08,15,11,00,29.40
2010,08,15,11,01,29.40
2010,08,15,11,02,29.40
2010,08,15,11,03,29.40
2010,08,15,11,04,29.40
2010,08,15,11,05,29.40
2010,08,15,11,06,29.40
2010,08,15,11,07,29.30
2010,08,15,11,08,29.30
2010,08,15,11,09,29.30
2010,08,15,11,10,29.30
2010,08,15,11,11,29.30
2010,08,15,11,12,29.20
2010,08,15,11,13,29.20
2010,08,15,11,14,29.20
2010,08,15,11,15,29.20
2010,08,15,11,16,29.20
2010,08,15,11,17,29.30
2010,08,15,11,18,29.40
2010,08,15,11,19,29.40
2010,08,15,11,20,29.30
2010,08,15,11,21,29.30
2010,08,15,11,22,29.40
2010,08,15,11,23,29.50
2010,08,15,11,24,29.60
2010,08,15,11,25,29.70
2010,08,15,11,26,29.80
2010,08,15,11,27,29.90
2010,08,15,11,28,29.90
2010,08,15,11,29,30.00
2010,08,15,11,30,30.10
2010,08,15,11,31,30.20
2010,08,15,11,32,30.30
2010,08,15,11,33,30.30
2010,08,15,11,34,30.30
2010,08,15,11,35,30.30
2010,08,15,11,36,30.30
2010,08,15,11,37,30.30
2010,08,15,11,38,30.30
2010,08,15,11,39,30.40
2010,08,15,11,40,30.50
2010,08,15,11,41,30.60
2010,08,15,11,42,30.70
2010,08,15,11,43,30.70
2010,08,15,11,44,30.70
2010,08,15,11,45,30.70
2010,08,15,11,46,30.70
2010,08,15,11,47,30.70
2010,08,15,11,48,30.70
2010,08,15,11,49,30.80
2010,08,15,11,50,30.90
2010,08,15,11,51,30.90
2010,08,15,11,52,30.90
2010,08,15,11,53,30.90
2010,08,15,11,54,31.00
2010,08,15,11,55,31.00
2010,08,15,11,56,31.10
2010,08,15,11,57,31.10
2010,08,15,11,58,31.20
2010,08,15,11,59,31.30
2010,08,15,12,00,31.30
2010,08,15,12,01,31.30
2010,08,15,12,02,31.30
2010,08,15,12,03,31.20
2010,08,15,12,04,31.20
2010,08,15,12,05,31.20
2010,08,15,12,06,31.10
2010,08,15,12,07,31.00
2010,08,15,12,08,31.00
2010,08,15,12,09,31.00
2010,08,15,12,10,31.00
2010,08,15,12,11,31.10
2010,08,15,12,12,31.10
2010,08,15,12,13,31.20
2010,08,15,12,14,31.30
2010,08,15,12,15,31.40
2010,08,15,12,16,31.50
2010,08,15,12,17,31.60
2010,08,15,12,18,31.50
2010,08,15,12,19,31.30
2010,08,15,12,20,31.10
2010,08,15,12,21,30.90
2010,08,15,12,22,30.80
2010,08,15,12,23,30.90
2010,08,15,12,24,31.00
2010,08,15,12,25,31.10
2010,08,15,12,26,31.20
2010,08,15,12,27,31.20
2010,08,15,12,28,31.20
2010,08,15,12,29,31.20
2010,08,15,12,30,31.20
2010,08,15,12,31,31.20
2010,08,15,12,32,31.30
2010,08,15,12,33,31.30
2010,08,15,12,34,31.30
2010,08,15,12,35,31.30
2010,08,15,12,36,31.30
2010,08,15,12,37,31.30
2010,08,15,12,38,31.30
2010,08,15,12,39,31.30
2010,08,15,12,40,31.30
2010,08,15,12,41,31.20
2010,08,15,12,42,31.20
2010,08,15,12,43,31.20
2010,08,15,12,44,31.20
2010,08,15,12,45,31.20
2010,08,15,12,46,31.20
2010,08,15,12,47,31.20
2010,08,15,12,48,31.20
2010,08,15,12,49,31.20
2010,08,15,12,50,31.20
2010,08,15,12,51,31.20
2010,08,15,12,52,31.20
2010,08,15,12,53,31.20
2010,08,15,12,54,31.10
2010,08,15,12,55,31.10
2010,08,15,12,56,31.20
2010,08,15,12,57,31.30
2010,08,15,12,58,31.40
2010,08,15,12,59,31.50
2010,08,15,13,00,31.60
2010,08,15,13,01,31.70
2010,08,15,13,02,31.70
2010,08,15,13,03,31.80
2010,08,15,13,04,31.80
2010,08,15,13,05,31.90
2010,08,15,13,06,32.00
2010,08,15,13,07,32.10
2010,08,15,13,08,32.30
2010,08,15,13,09,32.40
2010,08,15,13,10,32.20
2010,08,15,13,11,32.10
2010,08,15,13,12,32.00
2010,08,15,13,13,31.90
2010,08,15,13,14,31.90
2010,08,15,13,15,31.90
2010,08,15,13,16,31.80
2010,08,15,13,17,31.70
2010,08,15,13,18,31.80
2010,08,15,13,19,31.70
2010,08,15,13,20,31.70
2010,08,15,13,21,31.70
2010,08,15,13,22,31.70
2010,08,15,13,23,31.50
2010,08,15,13,24,31.40
2010,08,15,13,25,31.30
2010,08,15,13,26,31.10
2010,08,15,13,27,31.10
2010,08,15,13,28,31.10
2010,08,15,13,29,31.00
2010,08,15,13,30,30.80
2010,08,15,13,31,30.70
2010,08,15,13,32,30.50
2010,08,15,13,33,30.50
2010,08,15,13,34,30.60
2010,08,15,13,35,30.70
2010,08,15,13,36,30.80
2010,08,15,13,37,30.90
2010,08,15,13,38,31.00
2010,08,15,13,39,31.10
2010,08,15,13,40,31.20
2010,08,15,13,41,31.20
2010,08,15,13,42,31.20
2010,08,15,13,43,31.20
2010,08,15,13,44,31.10
2010,08,15,13,45,31.10
2010,08,15,13,46,31.10
2010,08,15,13,47,31.10
2010,08,15,13,48,31.10
2010,08,15,13,49,31.20
2010,08,15,13,50,31.30
2010,08,15,13,51,31.50
2010,08,15,13,52,31.60
2010,08,15,13,53,31.60
2010,08,15,13,54,31.60
2010,08,15,13,55,31.60
2010,08,15,13,56,31.50
2010,08,15,13,57,31.40
2010,08,15,13,58,31.50
2010,08,15,13,59,31.50
2010,08,15,14,00,31.40
2010,08,15,14,01,31.40
2010,08,15,14,02,31.40
2010,08,15,14,03,31.40
2010,08,15,14,04,31.40
2010,08,15,14,05,31.30
2010,08,15,14,06,31.20
2010,08,15,14,07,31.00
2010,08,15,14,08,31.00
2010,08,15,14,09,31.00
2010,08,15,14,10,31.10
2010,08,15,14,11,31.20
2010,08,15,14,12,31.20
2010,08,15,14,13,31.10
2010,08,15,14,14,31.00
2010,08,15,14,15,31.00
2010,08,15,14,16,31.00
2010,08,15,14,17,31.10
2010,08,15,14,18,31.30
2010,08,15,14,19,31.40
2010,08,15,14,20,31.50
2010,08,15,14,21,31.60
2010,08,15,14,22,31.60
2010,08,15,14,23,31.70
2010,08,15,14,24,31.80
2010,08,15,14,25,31.80
2010,08,15,14,26,31.90
2010,08,15,14,27,31.90
2010,08,15,14,28,31.70
2010,08,15,14,29,31.70
2010,08,15,14,30,31.60
2010,08,15,14,31,31.60
2010,08,15,14,32,31.60
2010,08,15,14,33,31.60
2010,08,15,14,34,31.70
2010,08,15,14,35,31.80
2010,08,15,14,36,31.90
2010,08,15,14,37,32.00
2010,08,15,14,38,32.10
2010,08,15,14,39,32.10
2010,08,15,14,40,32.20
2010,08,15,14,41,32.30
2010,08,15,14,42,32.20
2010,08,15,14,43,32.10
2010,08,15,14,44,32.10
2010,08,15,14,45,32.10
2010,08,15,14,46,31.90
2010,08,15,14,47,31.80
2010,08,15,14,48,31.70
2010,08,15,14,49,31.60
2010,08,15,14,50,31.40
2010,08,15,14,51,31.30
2010,08,15,14,52,31.20
2010,08,15,14,53,31.20
2010,08,15,14,54,31.20
2010,08,15,14,55,31.20
2010,08,15,14,56,31.30
2010,08,15,14,57,31.30
2010,08,15,14,58,31.40
2010,08,15,14,59,31.40
2010,08,15,15,00,31.40
2010,08,15,15,01,31.40
2010,08,15,15,02,31.50
2010,08,15,15,03,31.60
2010,08,15,15,04,31.50
2010,08,15,15,05,31.30
2010,08,15,15,06,31.20
2010,08,15,15,07,31.20
2010,08,15,15,08,31.20
2010,08,15,15,09,31.20
2010,08,15,15,10,31.20
2010,08,15,15,11,31.30
2010,08,15,15,12,31.30
2010,08,15,15,13,31.30
2010,08,15,15,14,31.40
2010,08,15,15,15,31.30
2010,08,15,15,16,31.30
2010,08,15,15,17,31.30
2010,08,15,15,18,31.30
2010,08,15,15,19,31.30
2010,08,15,15,20,31.20
2010,08,15,15,21,31.20
2010,08,15,15,22,31.20
2010,08,15,15,23,31.20
2010,08,15,15,24,31.20
2010,08,15,15,25,31.20
2010,08,15,15,26,31.20
2010,08,15,15,27,31.20
2010,08,15,15,28,31.20
2010,08,15,15,29,31.10
2010,08,15,15,30,31.20
2010,08,15,15,31,31.20
2010,08,15,15,32,31.30
2010,08,15,15,33,31.30
2010,08,15,15,34,31.40
2010,08,15,15,35,31.50
2010,08,15,15,36,31.50
2010,08,15,15,37,31.40
2010,08,15,15,38,31.40
2010,08,15,15,39,31.30
2010,08,15,15,40,31.20
2010,08,15,15,41,31.10
2010,08,15,15,42,31.10
2010,08,15,15,43,31.10
2010,08,15,15,44,31.20
2010,08,15,15,45,31.30
2010,08,15,15,46,31.40
2010,08,15,15,47,31.40
2010,08,15,15,48,31.40
2010,08,15,15,49,31.30
2010,08,15,15,50,31.20
2010,08,15,15,51,31.20
2010,08,15,15,52,31.20
2010,08,15,15,53,31.10
2010,08,15,15,54,31.10
2010,08,15,15,55,31.10
2010,08,15,15,56,31.00
2010,08,15,15,57,31.00
2010,08,15,15,58,31.00
2010,08,15,15,59,31.00
2010,08,15,16,00,31.00
2010,08,15,16,01,31.10
2010,08,15,16,02,31.20
2010,08,15,16,03,31.40
2010,08,15,16,04,31.50
2010,08,15,16,05,31.60
2010,08,15,16,06,31.70
2010,08,15,16,07,31.60
2010,08,15,16,08,31.60
2010,08,15,16,09,31.60
2010,08,15,16,10,31.40
2010,08,15,16,11,31.30
2010,08,15,16,12,31.30
2010,08,15,16,13,31.30
2010,08,15,16,14,31.30
2010,08,15,16,15,31.30
2010,08,15,16,16,31.20
2010,08,15,16,17,31.10
2010,08,15,16,18,31.00
2010,08,15,16,19,31.10
2010,08,15,16,20,31.10
2010,08,15,16,21,31.10
2010,08,15,16,22,31.10
2010,08,15,16,23,31.10
2010,08,15,16,24,31.20
2010,08,15,16,25,31.30
2010,08,15,16,26,31.30
2010,08,15,16,27,31.30
2010,08,15,16,28,31.30
2010,08,15,16,29,31.30
2010,08,15,16,30,31.30
2010,08,15,16,31,31.40
2010,08,15,16,32,31.50
2010,08,15,16,33,31.60
2010,08,15,16,34,31.70
2010,08,15,16,35,31.90
2010,08,15,16,36,32.00
2010,08,15,16,37,32.10
2010,08,15,16,38,32.10
2010,08,15,16,39,32.10
2010,08,15,16,40,32.10
2010,08,15,16,41,32.20
2010,08,15,16,42,32.10
2010,08,15,16,43,32.10
2010,08,15,16,44,32.00
2010,08,15,16,45,31.90
2010,08,15,16,46,31.70
2010,08,15,16,47,31.70
2010,08,15,16,48,31.70
2010,08,15,16,49,31.70
2010,08,15,16,50,31.70
2010,08,15,16,51,31.70
2010,08,15,16,52,31.60
2010,08,15,16,53,31.50
2010,08,15,16,54,31.40
2010,08,15,16,55,31.40
2010,08,15,16,56,31.30
2010,08,15,16,57,31.40
2010,08,15,16,58,31.40
2010,08,15,16,59,31.30
2010,08,15,17,00,31.20
2010,08,15,17,01,31.10
2010,08,15,17,02,31.00
2010,08,15,17,03,30.90
2010,08,15,17,04,30.90
2010,08,15,17,05,30.90
2010,08,15,17,06,30.80
2010,08,15,17,07,30.80
2010,08,15,17,08,30.80
2010,08,15,17,09,30.80
2010,08,15,17,10,30.90
2010,08,15,17,11,30.90
2010,08,15,17,12,30.90
2010,08,15,17,13,30.90
2010,08,15,17,14,30.80
2010,08,15,17,15,30.80
2010,08,15,17,16,30.90
2010,08,15,17,17,30.90
2010,08,15,17,18,30.90
2010,08,15,17,19,30.90